Regional Weather Roundup
Issued by NWS Charleston, SC

Home | Current Version | Previous Version | Text Only | Print | Product List | Glossary On
Versions: 1 2 3 4 5 6 7 8 9 10 11 12 13 14 15 16 17 18 19 20 21 22 23 24 25 26 27 28 29 30 31 32 33 34 35 36 37 38 39 40 41 42 43 44 45 46 47 48 49 50
000
ASUS42 KCHS 290826
RWRCHS

REGIONAL WEATHER ROUNDUP
NATIONAL WEATHER SERVICE CHARLESTON SC
300 AM EST THU JAN 29 2015

NOTE: "FAIR" INDICATES FEW OR NO CLOUDS BELOW 12,000 FEET WITH NO
SIGNIFICANT WEATHER AND/OR OBSTRUCTIONS TO VISIBILITY.

NOT ALL STATIONS ARE QUALITY CONTROLLED BY THE NATIONAL
WEATHER SERVICE. USE DATA WITH CAUTION...ESPECIALLY
DEWPOINT OBSERVATIONS.

SCZ027-030-031-034>040-042>050-290900-
...SOUTHEAST SOUTH CAROLINA...

CITY           SKY/WX    TMP DP  RH WIND       PRES   REMARKS
N CHARLESTON   CLEAR     29  27  92 CALM      30.34S
WATERFRONT PRK   N/A     43 N/A N/A NE7         N/A
MOUNT PLEASANT LGT RAIN N/A N/A N/A CALM      30.33S
PINOPOLIS      NOT AVBL
MONCKS CORNER  FAIR      30  27  86 CALM      30.34S
SUMMERVILLE    NOT AVBL
BEAUFORT MCAS  CLEAR     31  29  92 CALM      30.34R
BEAUFORT ARPT  FAIR      34  34 100 CALM      30.33S
HILTON HEAD IS CLEAR     34  32  93 MISG      30.34F
WALTERBORO     SUNNY     28 N/A N/A CALM      30.35S
ALLENDALE      FAIR      28  27  93 CALM      30.32S

...SOUTHERN MIDLANDS AND PEE DEE...

CITY           SKY/WX    TMP DP  RH WIND       PRES   REMARKS
GEORGETOWN     NOT AVBL
KINGSTREE      NOT AVBL
ORANGEBURG     CLEAR     27  23  85 CALM      30.34S
BARNWELL         N/A     28  27  93 CALM      30.33S
AIKEN          FAIR      28  25  86 CALM      30.34F
MANNING        FAIR      28  28 100 CALM      30.35S
COLUMBIA       CLEAR     26  22  84 SW3       30.33R
SUMTER         CLEAR     25  21  83 NE2       30.32S
FLORENCE       CLEAR     27  23  85 N3        30.35R
MYRTLE BEACH   CLEAR     28  23  80 N5        30.35F WCI  23
N MYRTLE BEACH CLEAR     27  22  81 CALM      30.34R

$$

GAZ063-065-086>088-099>101-113>116-118-119-134>141-150-290900-
...SOUTHEAST GEORGIA...

CITY           SKY/WX    TMP DP  RH WIND       PRES   REMARKS
SAVANNAH ARPT  CLEAR     30  26  85 CALM      30.34R
HUNTER AAF     CLEAR     30  28  89 W1        30.31R
FORT STEWART   CLEAR     29  26  87 CALM      30.32S
STATESBORO     CLEAR     27  27 100 CALM      30.32S
SYLVANIA       SUNNY     30  30 100 CALM      30.33S
CLAXTON        FAIR      30  28  93 CALM      30.33F

...CSRA...CENTRAL AND FAR SOUTHEAST GEORGIA...

CITY           SKY/WX    TMP DP  RH WIND       PRES   REMARKS
THOMSON        CLEAR     29  28  95 CALM      30.35S
AUGUSTA-BUSH   CLEAR     25  22  88 CALM      30.33S
AUGUSTA-DANIEL CLEAR     37  23  56 SE3       30.32S
SWAINSBORO     FAIR      36  21  55 CALM      30.32S
VIDALIA        PTCLDY    36  28  75 CALM      30.31S
EASTMAN        FOG       30  30 100 CALM      30.33S VSB 1
HAZLEHURST     FAIR      39  31  73 SE5       30.29F WCI  35
ALMA           CLEAR     31  28  89 CALM      30.32S
WAYCROSS       CLEAR     35  35  98 CALM      30.32R
JESUP          FAIR      32  32 100 CALM      30.32S
BAXLEY         FAIR      34  32  93 CALM      30.30F
BRUNSWICK      CLEAR     32  32 100 CALM      30.32F
SAINT SIMONS   CLEAR     36  31  82 CALM      30.31F

$$

SCZ027-028-034-036>038-045-046-048>050-GAZ119-141-290900-
...LAKE AND SUPPLEMENTAL COASTAL OBSERVATIONS...

STATION/POSITION TIME  TEMP    WIND        PRES    WAVE   SWELL
                       AIR SEA DIR/SP/G            HT/PER HT/PER/DIR
                 (UTC) (F)     (DEG/KT/KT) (MB)    (FT/S) (FT/S/D)
UPR LAKE MARION  NOT AVBL
WINYAH BAY       NOT AVBL
LAKE MURRAY      0700   38     100/  5/  6 1026.1S
ACE BASIN NERRS  NOT AVBL
FORT PULASKI     0800   47 52   60/ 10/ 12 1027.3R
SAPELO ISLAND    0700   35      30/  2     1026.0F

$$

ANZ835-935-AMZ111-154-330-350-352-354-370-450-454-472-290900-
...C-MAN AND BUOY OBSERVATIONS...

STATION/POSITION TIME  TEMP    WIND        PRES    WAVE   SWELL
                       AIR SEA DIR/SP/G            HT/PER HT/PER/DIR
                 (UTC) (F)     (DEG/KT/KT) (MB)    (FT/S) (FT/S/D)
BUOY 41004       0750   50 67   40/ 10/ 14 1026.0F   4/ 6   3/ 6
BUOY 41008       0750   49 54   60/ 10/ 14 1026.3F   3/ 8   2/ 90/ 8
FOLLY BEACH CMAN 0800   45      30/  7/  8 1027.6R
CAPERS NEARSHORE 0700   45      60/  8/ 10   N/A
FRIPP NEARSHORE  0700   47      70/  8/ 10 1026.1F


STATION/POSITION TIME  TEMP    WIND        PRES    WAVE   SWELL
                       AIR SEA DIR/SP/G            HT/PER HT/PER/DIR
                 (UTC) (F)     (DEG/KT/KT) (MB)    (FT/S) (FT/S/D)
5E ST. MARYS GA  NOT AVBL
FRYING PAN BUOY  0750   47 65   20/ 12/ 16 1027.4F   4/ 6   3/ 60/ 6
BUOY 41025       0750   40 71  340/ 17/ 19 1025.5F   6/ 9   5/ 20/ 9
CAPE LOOKOUT NC  0800   36      10/  8/ 12 1026.5F
BUOY 41002       0750   56 72  340/ 17/ 21 1024.0R  10/ 9   7/ 20/ 9
BUOY 41010       0720   62 75   30/ 14/ 19 1023.9R
ST AUGUSTINE FL  0800   53      40/ 13/ 15 1025.9F


$$


USA.gov is the U.S. government's official web portal to all federal, state and local government web resources and services.